This demonstration page uses our WeatherBlox Daily Observations layout. Learn more.

Hourly Observations for November 19, 2016

Temp ( °F °C ) Dew Point ( °F °C ) Humidity (%) Winds ( mph kmh ) Pressure ( in mb ) Visibility ( mi km ) Precip ( " mm )
12:54 am 00:54 Clear 30 -1.1 23 -5 75 75 WNW 9 15 30.53 1034 10 16.0934 0 0
1:54 am 01:54 Clear 29 -1.7 22 -5.6 75 75 WNW 10 17 30.53 1034 10 16.0934 0 0
2:54 am 02:54 Clear 28 -2.2 22 -5.6 78 78 WNW 6 9 30.53 1034 10 16.0934 0 0
3:54 am 03:54 Clear 27 -2.8 21 -6.1 78 78 W 6 9 30.53 1034 10 16.0934 0 0
4:54 am 04:54 Clear 27 -2.8 21 -6.1 78 78 NNW 7 11 30.54 1034 10 16.0934 0 0
5:54 am 05:54 Clear 26 -3.3 20 -6.7 78 78 WNW 6 9 30.55 1035 10 16.0934 0 0
6:54 am 06:54 Clear 26 -3.3 19 -7.2 75 75 W 3 6 30.59 1036 10 16.0934 0 0
7:54 am 07:54 Sunny 26 -3.3 20 -6.7 78 78 WNW 5 7 30.61 1037 10 16.0934 0 0
8:54 am 08:54 Sunny 30 -1.1 21 -6.1 69 69 W 5 7 30.61 1037 10 16.0934 0 0
9:54 am 09:54 Sunny 35 1.7 24 -4.4 64 64 WNW 5 7 30.63 1037 10 16.0934 0 0
10:54 am 10:54 Sunny 38 3.3 24 -4.4 57 57 N 3 6 30.62 1037 10 16.0934 0 0
11:54 am 11:54 Sunny 40 4.4 24 -4.4 53 53 VRB 5 7 30.6 1036 10 16.0934 0 0
12:54 pm 12:54 Sunny 43 6.1 24 -4.4 47 47 NNW 8 13 30.58 1036 10 16.0934 0 0
1:54 pm 13:54 Sunny 44 6.7 24 -4.4 45 45 VRB 7 11 30.56 1035 10 16.0934 0 0
2:54 pm 14:54 Sunny 43 6.1 24 -4.4 47 47 WNW 5 7 30.53 1034 10 16.0934 0 0
3:54 pm 15:54 Sunny 44 6.7 24 -4.4 45 45 Calm 30.51 1033 10 16.0934 0 0
4:54 pm 16:54 Sunny 38 3.3 25 -3.9 60 60 NNE 5 7 30.51 1033 10 16.0934 0 0
5:54 pm 17:54 Clear 34 1.1 23 -5 64 64 ENE 6 9 30.5 1033 10 16.0934 0 0
6:54 pm 18:54 Clear 34 1.1 24 -4.4 67 67 E 7 11 30.49 1033 10 16.0934 0 0
7:54 pm 19:54 Clear 33 0.6 23 -5 66 66 ESE 5 7 30.49 1033 10 16.0934 0 0
8:54 pm 20:54 Clear 32 0 22 -5.6 66 66 Calm 30.48 1032 10 16.0934 0 0
9:54 pm 21:54 Clear 30 -1.1 21 -6.1 69 69 Calm 30.47 1032 10 16.0934 0 0
10:54 pm 22:54 Clear 24 -4.4 19 -7.2 81 81 Calm 30.46 1031 10 16.0934 0 0
11:54 pm 23:54 Clear 26 -3.3 21 -6.1 81 81 Calm 30.44 1031 10 16.0934 0 0

Powered by AerisWeather